Location: Marengo
(51.4813°N, 109.7825°W)
Time: 23:05:37
(UTC+00:00)

Envisat - Pass Details

Date: 31 January 2022
Orbit: 764 x 765 km, 98.2° (Epoch: 22 May)

Event Time Altitude Azimuth Distance (km) Brightness Sun altitude
Rises 00:48:36 0° 218° (SW) 3,220 7.3 -7.0°
Reaches altitude 10° 00:52:04 10° 243° (WSW) 2,301 7.2 -7.5°
Maximum altitude 00:54:41 14° 275° (W) 2,034 6.4 -7.9°
Drops below altitude 10° 00:57:20 10° 306° (NW) 2,310 6.0 -8.3°
Sets 01:00:50 0° 331° (NNW) 3,242 6.4 -8.8°
